Theta_e
300 300 300 301 302 301 303 305 307 309 309 310 310 310 311 310 309 308 306 308 308 306 314 314 319 314 314 314 310 306 310 309 311 313 314 315 315 317 316 318 317 319 322 334 351
301 302 303 303 303 303 303 306 307 309 309 310 310 310 310 309 308 306 309 307 307 310 311 312 313 312 313 314 313 310 308 309 309 312 314 314 316 316 317 316 317 317 322 352 350
303 303 304 303 304 305 306 306 306 309 309 310 310 310 309 308 303 304 315 312 306 316 312 313 313 313 314 313 314 314 313 311 312 312 313 314 314 316 316 316 316 317 328 353 349
307 307 306 305 306 306 306 305 304 307 309 309 309 309 309 307 306 310 317 311 315 312 313 311 309 311 311 313 313 317 314 314 313 312 315 314 315 316 315 316 316 315 314 353 352
307 307 306 306 305 305 305 304 304 307 308 309 309 309 307 306 307 310 321 316 316 314 315 309 309 308 310 309 310 313 315 316 315 313 312 313 314 315 316 316 314 314 314 327 352
305 305 304 305 305 303 303 303 303 307 308 310 309 309 306 310 308 313 318 323 317 317 316 308 309 307 309 309 310 311 312 313 314 314 315 316 316 315 318 317 316 315 316 315 333
304 304 304 304 303 302 302 302 306 310 310 311 310 308 307 308 309 311 310 315 317 317 316 312 310 309 308 311 309 310 315 314 313 312 314 315 317 319 318 318 318 313 312 312 312
304 305 304 302 302 302 302 305 309 310 311 311 310 308 309 310 311 311 314 313 315 318 314 315 312 311 315 316 319 317 315 318 316 313 312 314 316 316 316 316 315 314 312 311 311
304 302 301 300 301 301 303 307 311 312 311 311 309 308 310 310 311 311 312 312 312 315 315 314 314 315 316 317 311 313 316 318 318 315 317 314 315 316 317 315 315 315 314 312 311
303 302 300 300 302 302 305 310 311 313 312 311 311 308 307 310 310 310 307 311 311 312 314 311 310 311 310 311 313 315 317 317 319 318 316 317 317 316 315 316 315 314 315 314 312
303 302 301 301 301 303 305 310 306 307 311 309 309 310 310 310 308 306 306 311 310 309 309 307 308 309 309 312 312 313 316 317 317 316 317 318 318 317 315 314 313 313 313 314 313
303 301 301 301 303 306 304 306 308 307 307 307 308 308 309 309 307 305 306 312 310 310 310 314 311 309 309 310 312 313 314 315 314 314 315 316 317 316 316 315 314 314 314 314 315
303 301 301 304 304 305 305 308 307 306 307 307 310 309 304 305 306 304 305 306 312 312 316 314 313 314 313 311 311 312 313 313 314 314 314 315 316 315 314 313 313 312 314 313 314
302 302 301 307 305 305 307 307 308 307 306 309 306 304 304 304 307 306 306 305 309 313 312 310 314 315 315 318 315 315 313 314 316 320 317 314 318 313 312 312 312 312 312 314 313
302 302 304 306 304 305 307 308 308 306 307 308 307 305 303 304 305 305 305 306 309 307 307 308 308 309 314 316 316 317 316 316 318 322 324 322 320 318 312 313 312 311 311 311 313
302 302 305 305 305 306 307 308 306 311 314 313 309 307 306 305 306 306 306 305 305 305 307 306 307 313 314 313 316 316 319 319 320 321 327 321 322 319 317 314 313 312 312 312 312
302 303 305 304 302 305 308 303 305 313 311 312 308 307 307 305 306 306 305 304 306 306 306 307 307 306 310 315 316 314 319 318 317 318 321 319 322 321 317 315 314 315 312 311 311
301 303 304 303 303 307 306 303 311 310 310 307 307 307 307 306 306 306 305 304 307 307 307 310 310 307 309 314 315 315 316 318 312 314 319 320 325 321 318 317 316 315 313 311 310
301 303 304 302 304 307 303 305 308 307 307 308 308 309 307 307 305 304 305 305 308 307 305 309 311 309 310 312 312 315 316 315 317 319 317 319 318 316 315 317 315 314 314 312 310
300 300 303 302 304 304 301 307 304 305 307 308 310 309 309 307 306 306 306 306 309 310 309 311 312 310 311 312 314 316 316 320 317 321 320 317 318 316 315 315 316 316 318 317 319
300 298 303 301 302 299 300 302 303 304 304 308 309 307 308 307 305 305 307 307 308 309 309 310 312 312 312 314 315 318 319 318 316 315 318 318 317 313 314 314 320 321 320 320 320
298 299 302 300 298 296 299 301 303 304 303 304 303 304 307 305 305 305 308 308 307 308 310 310 310 310 316 313 316 317 319 316 317 316 319 319 318 319 319 323 323 321 319 318 318
300 298 301 299 297 297 298 301 302 303 304 304 303 305 305 305 307 307 306 307 307 308 310 309 313 312 313 315 316 317 318 320 318 320 320 320 317 316 319 319 319 320 318 318 318
296 298 295 293 295 298 298 299 301 301 303 303 302 304 305 305 305 308 307 306 308 307 309 310 311 315 312 312 312 314 315 317 314 315 314 318 317 316 316 316 316 317 318 318 319
292 296 296 296 296 296 297 298 301 302 302 301 304 305 304 306 306 306 307 309 308 308 309 310 314 313 312 312 312 313 314 313 314 314 315 313 314 314 315 314 315 320 322 322 322
293 294 294 295 296 296 296 299 300 300 300 301 303 303 302 305 307 309 308 307 308 307 307 305 304 306 309 310 312 313 312 313 313 313 313 314 314 313 313 313 315 319 323 324 324
296 295 296 295 296 297 296 299 298 298 299 300 302 302 303 305 305 304 305 305 307 307 306 307 308 308 310 311 312 316 316 315 317 314 317 319 315 313 314 324 326 324 323 323 328
Wind_Speed
28 28 29 29 29 29 30 27 25 23 21 21 20 20 21 23 26 23 11 13 5 11 10 10 9 14 9 3 4 4 2 5 7 10 5 4 7 2 2 2 5 4 4 3 26
30 29 29 29 30 32 35 29 26 24 23 21 19 18 18 20 25 15 15 12 13 5 17 12 6 9 4 6 4 5 5 10 4 8 1 5 2 4 3 2 3 7 9 13 25
34 34 34 34 35 35 36 35 31 27 23 19 17 16 16 16 6 6 9 3 12 10 13 11 12 5 4 3 6 6 10 3 3 4 6 7 4 3 4 8 7 8 2 8 10
36 35 35 37 38 37 37 35 35 32 24 19 16 13 10 7 6 4 6 2 11 18 12 10 4 7 6 7 6 5 8 9 2 6 4 5 3 5 8 14 6 10 5 6 11
37 37 37 38 39 39 38 38 37 30 24 19 13 7 4 1 10 9 3 1 12 16 7 6 5 5 7 5 3 4 4 3 8 9 9 8 13 7 20 10 6 10 13 8 11
39 39 40 40 40 40 40 40 36 29 24 15 6 3 2 4 3 9 2 4 10 17 8 7 7 6 4 4 5 3 5 10 10 10 5 7 9 6 14 7 10 12 19 14 11
41 41 42 42 41 42 43 41 30 23 14 6 6 6 2 12 3 13 9 9 11 18 5 17 7 6 4 2 4 5 6 8 4 6 8 9 15 32 6 12 14 11 13 12 9
42 43 44 44 44 45 43 30 21 12 9 7 9 5 7 6 13 20 11 8 14 14 18 6 12 1 3 4 5 3 0 1 5 5 6 13 24 6 12 11 11 9 9 10 11
44 46 47 46 46 45 34 22 7 9 9 12 5 3 9 11 8 16 12 5 7 19 14 4 6 5 1 3 4 3 3 3 5 4 3 10 7 1 2 8 9 9 10 9 10
46 49 49 51 46 42 22 5 3 5 5 1 1 3 5 9 19 22 21 10 2 4 2 3 3 4 3 3 6 6 5 4 6 3 4 11 13 10 8 5 8 9 9 9 9
48 51 53 51 46 31 19 4 4 3 2 5 11 4 14 9 11 15 22 2 2 2 6 5 3 6 11 13 12 9 7 10 8 7 8 16 16 11 9 8 9 8 9 9 10
49 53 56 50 36 11 13 5 6 6 8 8 9 6 15 7 4 15 22 7 6 4 6 1 6 9 15 10 9 9 11 13 7 9 8 14 22 17 19 17 12 11 12 11 9
50 54 52 40 11 11 8 4 16 11 2 7 4 0 5 4 2 8 8 4 5 9 3 4 7 13 11 9 11 11 14 11 12 5 9 10 19 15 14 11 10 10 13 10 12
50 54 42 28 5 13 3 21 27 1 4 6 6 4 7 9 7 9 10 5 3 7 6 8 5 3 9 10 10 13 9 13 13 6 5 4 7 5 7 12 9 12 11 14 12
50 50 28 19 8 4 15 29 23 3 3 4 4 5 7 4 6 2 5 4 8 7 4 9 14 14 11 5 3 9 6 10 10 7 3 4 4 5 7 10 10 10 11 12 14
48 39 23 15 12 20 26 28 2 4 3 6 5 12 15 2 6 3 6 7 5 4 4 13 9 10 10 12 8 4 2 3 1 3 7 15 10 5 8 9 7 7 10 10 11
47 27 20 14 11 22 16 6 5 4 10 8 10 14 17 5 7 3 6 5 0 4 4 16 9 7 18 9 10 2 3 2 2 2 8 4 7 18 6 9 12 12 8 9 7
48 14 19 25 27 15 6 6 6 5 4 11 11 19 7 9 3 9 10 6 2 3 4 4 8 2 8 14 3 5 9 4 6 3 4 3 6 13 16 18 8 12 11 8 8
42 10 19 39 22 6 5 4 2 6 9 8 15 4 4 4 6 7 7 5 2 1 2 5 6 7 10 5 8 5 6 12 5 2 2 4 8 14 12 16 6 9 8 10 9
22 9 17 35 14 7 5 3 4 7 7 4 4 5 6 7 7 11 4 5 1 4 4 3 11 6 4 1 11 11 5 4 2 4 4 5 6 10 4 4 6 6 6 7 5
8 4 23 31 9 6 4 4 5 8 11 4 4 8 6 5 7 8 6 10 5 5 2 6 6 8 3 4 4 2 6 3 3 3 4 2 6 5 15 11 4 6 6 7 7
7 3 22 22 5 3 3 6 6 5 5 5 5 6 3 5 6 8 6 5 10 9 8 2 4 6 6 10 9 7 3 5 4 4 4 3 9 3 4 3 4 6 7 7 6
3 3 11 12 4 3 6 6 3 6 8 3 4 4 4 7 6 6 6 5 11 6 4 3 3 4 7 1 5 2 2 0 2 1 6 3 5 2 5 8 8 9 8 8 7
2 4 4 4 2 2 4 4 6 6 10 7 10 10 6 15 13 6 11 8 11 18 24 12 4 7 2 3 2 4 6 3 4 2 3 9 14 15 11 9 14 10 9 8 10
4 1 1 4 3 4 2 3 5 7 4 6 4 5 14 8 16 4 6 7 12 10 3 3 4 5 9 11 10 11 12 11 9 7 6 6 12 17 8 11 14 8 8 10 12
2 3 3 3 4 5 4 2 4 4 4 8 5 17 18 7 14 20 19 13 4 3 5 3 4 5 6 8 7 9 10 11 13 14 16 19 26 20 19 15 12 11 8 10 12
4 2 0 4 3 3 2 3 6 12 8 11 11 19 17 12 18 24 20 18 11 5 3 4 3 4 5 7 12 6 2 4 8 10 10 13 21 14 15 6 5 7 10 7 8
Wind_Direction
4 0 358 354 350 348 346 339 334 328 321 317 314 311 312 313 308 299 250 238 219 214 156 134 133 164 153 170 139 133 125 228 221 175 223 241 189 145 305 215 337 282 333 275 146
2 357 353 349 347 348 348 338 334 327 323 318 313 311 315 318 309 265 295 260 225 246 175 164 144 140 160 180 188 164 184 222 223 217 0 302 252 6 343 43 279 298 353 124 147
2 358 354 350 348 348 347 341 337 329 322 314 309 311 317 322 316 253 330 230 185 195 180 171 150 134 171 144 199 201 234 190 194 181 185 246 271 241 256 269 201 223 8 156 164
358 356 353 349 347 345 341 339 337 330 322 314 308 310 316 318 305 0 348 161 165 158 152 146 108 147 185 198 215 248 241 246 277 240 209 235 237 244 222 244 294 276 133 180 183
356 353 349 347 346 343 340 336 334 327 319 309 303 308 333 323 250 336 352 158 165 177 188 149 145 140 179 203 210 257 268 232 241 246 256 288 264 249 257 254 240 266 281 216 203
355 352 350 348 346 344 340 335 331 328 317 299 274 212 129 280 307 360 146 199 192 188 193 157 198 191 210 211 172 248 247 263 264 264 239 247 262 209 253 235 219 219 255 261 214
354 352 349 347 347 343 340 335 333 327 337 296 175 167 194 243 288 312 274 243 236 208 184 211 173 165 154 246 235 259 315 319 236 203 219 204 258 240 211 272 272 240 249 262 220
353 351 349 347 347 342 339 341 335 7 22 117 148 153 249 294 324 327 311 257 228 227 220 288 205 280 201 311 358 272 301 333 279 194 232 157 257 357 195 191 224 240 258 260 265
354 351 348 346 344 340 338 344 23 63 68 117 128 125 276 321 332 332 301 243 233 224 235 272 136 200 174 146 346 347 243 221 305 196 309 203 280 312 173 201 229 227 228 238 266
352 350 348 346 340 341 341 14 87 78 76 42 65 313 269 324 322 335 338 257 198 149 327 200 169 177 58 125 232 225 226 217 216 279 319 274 270 313 324 304 256 247 247 252 238
350 349 348 344 338 341 355 64 12 345 171 229 259 224 282 291 24 359 356 28 341 146 176 205 161 196 206 212 221 225 241 262 251 264 296 276 288 285 285 291 301 277 260 251 239
349 349 348 342 346 22 9 66 75 308 302 281 252 214 265 279 349 1 17 35 31 315 329 290 240 227 223 224 222 224 241 259 270 250 244 272 270 270 265 263 244 252 264 257 254
348 350 346 342 19 18 60 72 335 338 281 308 296 182 4 349 116 353 15 337 353 316 348 283 273 292 234 234 223 231 232 245 244 252 257 280 281 256 255 247 239 228 238 244 235
348 351 347 349 51 355 16 336 339 205 44 292 360 20 349 319 353 354 5 331 307 240 246 267 259 345 266 245 225 245 223 243 251 254 238 144 284 205 229 247 218 228 221 240 240
347 353 359 10 339 353 324 334 331 131 346 16 22 358 333 74 312 75 69 318 258 271 334 240 262 281 277 251 276 266 202 222 221 226 283 264 253 256 209 236 240 222 223 232 243
346 354 22 12 358 333 329 330 14 52 273 334 333 344 342 354 321 299 304 319 259 284 233 255 260 253 235 244 230 355 3 344 286 186 234 235 211 227 219 225 248 228 231 218 238
344 354 14 14 333 335 338 4 33 72 351 355 329 335 323 324 320 14 316 330 46 357 305 304 259 247 228 259 239 115 95 274 310 197 242 206 207 244 253 226 227 239 235 254 236
341 355 16 3 349 346 358 31 47 13 342 321 315 307 291 6 315 326 331 349 359 62 278 323 320 230 201 224 225 182 167 236 195 187 242 341 213 255 221 246 227 227 240 248 262
343 20 7 356 344 343 68 39 32 5 339 308 316 306 320 347 341 336 324 292 203 128 105 306 256 318 298 262 189 174 215 228 287 302 354 242 268 287 249 249 225 242 241 243 246
341 340 5 354 9 18 69 357 348 7 333 305 297 7 313 326 342 351 296 265 311 151 139 274 293 254 298 175 229 225 176 169 198 208 227 252 252 234 17 156 211 248 243 263 265
359 36 355 354 26 42 81 303 299 349 357 324 282 289 278 348 330 306 266 290 277 2 279 267 237 298 328 233 228 155 211 167 158 172 204 239 254 214 226 249 214 269 280 259 275
351 39 0 3 51 27 358 306 283 339 5 291 318 287 278 335 297 285 243 233 330 343 304 302 292 281 250 247 313 272 217 168 177 205 219 267 261 274 184 169 191 257 278 290 272
21 297 6 29 64 342 304 300 295 316 327 327 292 263 12 322 296 252 269 272 311 338 345 305 260 314 303 310 222 94 145 357 69 86 221 214 262 122 337 331 309 293 298 296 296
47 6 336 32 85 94 337 287 322 315 299 334 287 275 345 304 283 280 279 307 317 313 296 271 258 256 256 309 3 317 313 228 152 200 255 238 281 283 304 299 296 294 271 279 290
24 52 149 320 346 333 260 276 312 340 322 303 279 270 322 296 304 252 269 280 292 311 13 2 268 290 280 268 256 255 259 255 235 225 231 274 281 276 282 289 278 264 286 293 290
65 23 357 294 301 335 340 302 302 320 296 300 256 313 312 286 288 302 311 307 271 322 347 7 291 335 286 269 262 268 261 258 249 247 246 256 267 272 275 275 273 271 284 281 296
34 48 72 293 321 337 260 311 302 324 280 239 290 311 306 298 310 291 283 271 250 262 305 303 314 335 272 323 313 284 6 319 283 253 236 247 251 278 283 284 337 331 299 287 313